Year,Month,Day,Hour,Minute,Value (Times are PST for insolation in W/m^2)
2019,04,16,00,00,0.00
2019,04,16,00,01,0.00
2019,04,16,00,02,0.00
2019,04,16,00,03,0.00
2019,04,16,00,04,0.00
2019,04,16,00,05,0.00
2019,04,16,00,06,0.00
2019,04,16,00,07,0.00
2019,04,16,00,08,0.00
2019,04,16,00,09,0.00
2019,04,16,00,10,0.00
2019,04,16,00,11,0.00
2019,04,16,00,12,0.00
2019,04,16,00,13,0.00
2019,04,16,00,14,0.00
2019,04,16,00,15,0.00
2019,04,16,00,16,0.00
2019,04,16,00,17,0.00
2019,04,16,00,18,0.00
2019,04,16,00,19,0.00
2019,04,16,00,20,0.00
2019,04,16,00,21,0.00
2019,04,16,00,22,0.00
2019,04,16,00,23,0.00
2019,04,16,00,24,0.00
2019,04,16,00,25,0.00
2019,04,16,00,26,0.00
2019,04,16,00,27,0.00
2019,04,16,00,28,0.00
2019,04,16,00,29,0.00
2019,04,16,00,30,0.00
2019,04,16,00,31,0.00
2019,04,16,00,32,0.00
2019,04,16,00,33,0.00
2019,04,16,00,34,0.00
2019,04,16,00,35,0.00
2019,04,16,00,36,0.00
2019,04,16,00,37,0.00
2019,04,16,00,38,0.00
2019,04,16,00,39,0.00
2019,04,16,00,40,0.00
2019,04,16,00,41,0.00
2019,04,16,00,42,0.00
2019,04,16,00,43,0.00
2019,04,16,00,44,0.00
2019,04,16,00,45,0.00
2019,04,16,00,46,0.00
2019,04,16,00,47,0.00
2019,04,16,00,48,0.00
2019,04,16,00,49,0.00
2019,04,16,00,50,0.00
2019,04,16,00,51,0.00
2019,04,16,00,52,0.00
2019,04,16,00,53,0.00
2019,04,16,00,54,0.00
2019,04,16,00,55,0.00
2019,04,16,00,56,0.00
2019,04,16,00,57,0.00
2019,04,16,00,58,0.00
2019,04,16,00,59,0.00
2019,04,16,01,00,0.00
2019,04,16,01,01,0.00
2019,04,16,01,02,0.00
2019,04,16,01,03,0.00
2019,04,16,01,04,0.00
2019,04,16,01,05,0.00
2019,04,16,01,06,0.00
2019,04,16,01,07,0.00
2019,04,16,01,08,0.00
2019,04,16,01,09,0.00
2019,04,16,01,10,0.00
2019,04,16,01,11,0.00
2019,04,16,01,12,0.00
2019,04,16,01,13,0.00
2019,04,16,01,14,0.00
2019,04,16,01,15,0.00
2019,04,16,01,16,0.00
2019,04,16,01,17,0.00
2019,04,16,01,18,0.00
2019,04,16,01,19,0.00
2019,04,16,01,20,0.00
2019,04,16,01,21,0.00
2019,04,16,01,22,0.00
2019,04,16,01,23,0.00
2019,04,16,01,24,0.00
2019,04,16,01,25,0.00
2019,04,16,01,26,0.00
2019,04,16,01,27,0.00
2019,04,16,01,28,0.00
2019,04,16,01,29,0.00
2019,04,16,01,30,0.00
2019,04,16,01,31,0.00
2019,04,16,01,32,0.00
2019,04,16,01,33,0.00
2019,04,16,01,34,0.00
2019,04,16,01,35,0.00
2019,04,16,01,36,0.00
2019,04,16,01,37,0.00
2019,04,16,01,38,0.00
2019,04,16,01,39,0.00
2019,04,16,01,40,0.00
2019,04,16,01,41,0.00
2019,04,16,01,42,0.00
2019,04,16,01,43,0.00
2019,04,16,01,44,0.00
2019,04,16,01,45,0.00
2019,04,16,01,46,0.00
2019,04,16,01,47,0.00
2019,04,16,01,48,0.00
2019,04,16,01,49,0.00
2019,04,16,01,50,0.00
2019,04,16,01,51,0.00
2019,04,16,01,52,0.00
2019,04,16,01,53,0.00
2019,04,16,01,54,0.00
2019,04,16,01,55,0.00
2019,04,16,01,56,0.00
2019,04,16,01,57,0.00
2019,04,16,01,58,0.00
2019,04,16,01,59,0.00
2019,04,16,02,00,0.00
2019,04,16,02,01,0.00
2019,04,16,02,02,0.00
2019,04,16,02,03,0.00
2019,04,16,02,04,0.00
2019,04,16,02,05,0.00
2019,04,16,02,06,0.00
2019,04,16,02,07,0.00
2019,04,16,02,08,0.00
2019,04,16,02,09,0.00
2019,04,16,02,10,0.00
2019,04,16,02,11,0.00
2019,04,16,02,12,0.00
2019,04,16,02,13,0.00
2019,04,16,02,14,0.00
2019,04,16,02,15,0.00
2019,04,16,02,16,0.00
2019,04,16,02,17,0.00
2019,04,16,02,18,0.00
2019,04,16,02,19,0.00
2019,04,16,02,20,0.00
2019,04,16,02,21,0.00
2019,04,16,02,22,0.00
2019,04,16,02,23,0.00
2019,04,16,02,24,0.00
2019,04,16,02,25,0.00
2019,04,16,02,26,0.00
2019,04,16,02,27,0.00
2019,04,16,02,28,0.00
2019,04,16,02,29,0.00
2019,04,16,02,30,0.00
2019,04,16,02,31,0.00
2019,04,16,02,32,0.00
2019,04,16,02,33,0.00
2019,04,16,02,34,0.00
2019,04,16,02,35,0.00
2019,04,16,02,36,0.00
2019,04,16,02,37,0.00
2019,04,16,02,38,0.00
2019,04,16,02,39,0.00
2019,04,16,02,40,0.00
2019,04,16,02,41,0.00
2019,04,16,02,42,0.00
2019,04,16,02,43,0.00
2019,04,16,02,44,0.00
2019,04,16,02,45,0.00
2019,04,16,02,46,0.00
2019,04,16,02,47,0.00
2019,04,16,02,48,0.00
2019,04,16,02,49,0.00
2019,04,16,02,50,0.00
2019,04,16,02,51,0.00
2019,04,16,02,52,0.00
2019,04,16,02,53,0.00
2019,04,16,02,54,0.00
2019,04,16,02,55,0.00
2019,04,16,02,56,0.00
2019,04,16,02,57,0.00
2019,04,16,02,58,0.00
2019,04,16,02,59,0.00
2019,04,16,03,00,0.00
2019,04,16,03,01,0.00
2019,04,16,03,02,0.00
2019,04,16,03,03,0.00
2019,04,16,03,04,0.00
2019,04,16,03,05,0.00
2019,04,16,03,06,0.00
2019,04,16,03,07,0.00
2019,04,16,03,08,0.00
2019,04,16,03,09,0.00
2019,04,16,03,10,0.00
2019,04,16,03,11,0.00
2019,04,16,03,12,0.00
2019,04,16,03,13,0.00
2019,04,16,03,14,0.00
2019,04,16,03,15,0.00
2019,04,16,03,16,0.00
2019,04,16,03,17,0.00
2019,04,16,03,18,0.00
2019,04,16,03,19,0.00
2019,04,16,03,20,0.00
2019,04,16,03,21,0.00
2019,04,16,03,22,0.00
2019,04,16,03,23,0.00
2019,04,16,03,24,0.00
2019,04,16,03,25,0.00
2019,04,16,03,26,0.00
2019,04,16,03,27,0.00
2019,04,16,03,28,0.00
2019,04,16,03,29,0.00
2019,04,16,03,30,0.00
2019,04,16,03,31,0.00
2019,04,16,03,32,0.00
2019,04,16,03,33,0.00
2019,04,16,03,34,0.00
2019,04,16,03,35,0.00
2019,04,16,03,36,0.00
2019,04,16,03,37,0.00
2019,04,16,03,38,0.00
2019,04,16,03,39,0.00
2019,04,16,03,40,0.00
2019,04,16,03,41,0.00
2019,04,16,03,42,0.00
2019,04,16,03,43,0.00
2019,04,16,03,44,0.00
2019,04,16,03,45,0.00
2019,04,16,03,46,0.00
2019,04,16,03,47,0.00
2019,04,16,03,48,0.00
2019,04,16,03,49,0.00
2019,04,16,03,50,0.00
2019,04,16,03,51,0.00
2019,04,16,03,52,0.00
2019,04,16,03,53,0.00
2019,04,16,03,54,0.00
2019,04,16,03,55,0.00
2019,04,16,03,56,0.00
2019,04,16,03,57,0.00
2019,04,16,03,58,0.00
2019,04,16,03,59,0.00
2019,04,16,04,00,0.00
2019,04,16,04,01,0.00
2019,04,16,04,02,0.00
2019,04,16,04,03,0.00
2019,04,16,05,04,0.00
2019,04,16,05,05,0.00
2019,04,16,05,06,0.00
2019,04,16,05,07,0.00
2019,04,16,05,08,0.00
2019,04,16,05,09,0.00
2019,04,16,05,10,0.00
2019,04,16,05,11,0.00
2019,04,16,05,12,0.00
2019,04,16,05,13,0.00
2019,04,16,05,14,0.00
2019,04,16,05,15,0.00
2019,04,16,05,16,0.00
2019,04,16,05,17,0.00
2019,04,16,05,18,0.00
2019,04,16,05,19,0.00
2019,04,16,05,20,0.00
2019,04,16,05,21,0.00
2019,04,16,05,22,0.00
2019,04,16,05,23,0.00
2019,04,16,05,24,0.00
2019,04,16,05,25,0.00
2019,04,16,05,26,0.00
2019,04,16,05,27,0.00
2019,04,16,05,28,0.00
2019,04,16,05,29,0.00
2019,04,16,05,30,0.00
2019,04,16,05,31,0.00
2019,04,16,05,32,0.00
2019,04,16,05,33,0.00
2019,04,16,05,34,0.00
2019,04,16,05,35,0.00
2019,04,16,05,36,0.00
2019,04,16,05,37,0.00
2019,04,16,05,38,0.00
2019,04,16,05,39,0.00
2019,04,16,05,40,0.00
2019,04,16,05,41,0.00
2019,04,16,05,42,0.00
2019,04,16,05,43,0.00
2019,04,16,05,44,0.00
2019,04,16,05,45,0.00
2019,04,16,05,46,0.00
2019,04,16,05,47,0.00
2019,04,16,05,48,0.00
2019,04,16,05,49,0.00
2019,04,16,05,50,0.00
2019,04,16,05,51,0.00
2019,04,16,05,52,0.00
2019,04,16,05,53,0.00
2019,04,16,05,54,0.00
2019,04,16,05,55,0.00
2019,04,16,05,56,0.00
2019,04,16,05,57,0.00
2019,04,16,05,58,0.00
2019,04,16,05,59,0.00
2019,04,16,06,00,0.00
2019,04,16,06,01,0.00
2019,04,16,06,02,0.00
2019,04,16,06,03,0.00
2019,04,16,06,04,0.00
2019,04,16,06,05,0.00
2019,04,16,06,06,0.00
2019,04,16,06,07,0.00
2019,04,16,06,08,0.00
2019,04,16,06,09,0.00
2019,04,16,06,10,0.00
2019,04,16,06,11,0.00
2019,04,16,06,12,0.00
2019,04,16,06,13,0.00
2019,04,16,06,14,0.00
2019,04,16,06,15,0.00
2019,04,16,06,16,0.00
2019,04,16,06,17,0.00
2019,04,16,06,18,0.00
2019,04,16,06,19,0.00
2019,04,16,06,20,0.00
2019,04,16,06,21,0.00
2019,04,16,06,22,0.00
2019,04,16,06,23,1.00
2019,04,16,06,24,5.00
2019,04,16,06,25,5.00
2019,04,16,06,26,5.00
2019,04,16,06,27,6.50
2019,04,16,06,28,7.00
2019,04,16,06,29,7.00
2019,04,16,06,30,7.70
2019,04,16,06,31,9.00
2019,04,16,06,32,9.00
2019,04,16,06,33,9.00
2019,04,16,06,34,10.90
2019,04,16,06,35,11.00
2019,04,16,06,36,11.40
2019,04,16,06,37,12.00
2019,04,16,06,38,12.00
2019,04,16,06,39,12.00
2019,04,16,06,40,14.10
2019,04,16,06,41,16.00
2019,04,16,06,42,16.80
2019,04,16,06,43,18.00
2019,04,16,06,44,18.70
2019,04,16,06,45,19.00
2019,04,16,06,46,19.30
2019,04,16,06,47,21.00
2019,04,16,06,48,21.80
2019,04,16,06,49,23.00
2019,04,16,06,50,23.00
2019,04,16,06,51,23.00
2019,04,16,06,52,23.00
2019,04,16,06,53,23.60
2019,04,16,06,54,25.50
2019,04,16,06,55,27.20
2019,04,16,06,56,28.00
2019,04,16,06,57,29.80
2019,04,16,06,58,30.40
2019,04,16,06,59,32.30
2019,04,16,07,00,33.00
2019,04,16,07,01,34.20
2019,04,16,07,02,35.00
2019,04,16,07,03,36.90
2019,04,16,07,04,39.00
2019,04,16,07,05,39.30
2019,04,16,07,06,41.00
2019,04,16,07,07,42.00
2019,04,16,07,08,43.60
2019,04,16,07,09,45.90
2019,04,16,07,10,47.40
2019,04,16,07,11,49.70
2019,04,16,07,12,51.90
2019,04,16,07,13,53.70
2019,04,16,07,14,57.20
2019,04,16,07,15,60.20
2019,04,16,07,16,63.40
2019,04,16,07,17,65.80
2019,04,16,07,18,67.00
2019,04,16,07,19,68.30
2019,04,16,07,20,69.80
2019,04,16,07,21,72.10
2019,04,16,07,22,74.60
2019,04,16,07,23,79.80
2019,04,16,07,24,87.30
2019,04,16,07,25,95.50
2019,04,16,07,26,118.00
2019,04,16,07,27,129.80
2019,04,16,07,28,152.50
2019,04,16,07,29,163.00
2019,04,16,07,30,162.50
2019,04,16,07,31,160.60
2019,04,16,07,32,155.80
2019,04,16,07,33,156.30
2019,04,16,07,34,157.20
2019,04,16,07,35,156.40
2019,04,16,07,36,158.00
2019,04,16,07,37,156.50
2019,04,16,07,38,155.10
2019,04,16,07,39,152.20
2019,04,16,07,40,149.00
2019,04,16,07,41,149.00
2019,04,16,07,42,150.20
2019,04,16,07,43,152.50
2019,04,16,07,44,154.70
2019,04,16,07,45,155.00
2019,04,16,07,46,155.00
2019,04,16,07,47,156.50
2019,04,16,07,48,160.40
2019,04,16,07,49,159.00
2019,04,16,07,50,155.40
2019,04,16,07,51,160.40
2019,04,16,07,52,163.10
2019,04,16,07,53,167.00
2019,04,16,07,54,169.00
2019,04,16,07,55,176.20
2019,04,16,07,56,176.60
2019,04,16,07,57,179.90
2019,04,16,07,58,174.60
2019,04,16,07,59,165.00
2019,04,16,08,00,169.70
2019,04,16,08,01,181.60
2019,04,16,08,02,196.80
2019,04,16,08,03,202.80
2019,04,16,08,04,209.50
2019,04,16,08,05,222.50
2019,04,16,08,06,235.50
2019,04,16,08,07,244.60
2019,04,16,08,08,250.30
2019,04,16,08,09,255.00
2019,04,16,08,10,251.40
2019,04,16,08,11,248.20
2019,04,16,08,12,261.90
2019,04,16,08,13,274.60
2019,04,16,08,14,284.60
2019,04,16,08,15,298.50
2019,04,16,08,16,314.90
2019,04,16,08,17,328.00
2019,04,16,08,18,326.80
2019,04,16,08,19,331.00
2019,04,16,08,20,349.40
2019,04,16,08,21,348.00
2019,04,16,08,22,308.10
2019,04,16,08,23,277.20
2019,04,16,08,24,268.20
2019,04,16,08,25,250.60
2019,04,16,08,26,260.90
2019,04,16,08,27,247.50
2019,04,16,08,28,229.50
2019,04,16,08,29,210.10
2019,04,16,08,30,206.50
2019,04,16,08,31,207.10
2019,04,16,08,32,201.20
2019,04,16,08,33,189.30
2019,04,16,08,34,189.90
2019,04,16,08,35,190.80
2019,04,16,08,36,190.00
2019,04,16,08,37,197.60
2019,04,16,08,38,205.60
2019,04,16,08,39,204.70
2019,04,16,08,40,209.50
2019,04,16,08,41,222.10
2019,04,16,08,42,231.00
2019,04,16,08,43,243.40
2019,04,16,08,44,249.00
2019,04,16,08,45,271.00
2019,04,16,08,46,296.00
2019,04,16,08,47,314.90
2019,04,16,08,48,310.80
2019,04,16,08,49,291.10
2019,04,16,08,50,311.00
2019,04,16,08,51,331.20
2019,04,16,08,52,330.00
2019,04,16,08,53,315.30
2019,04,16,08,54,302.20
2019,04,16,08,55,286.80
2019,04,16,08,56,282.40
2019,04,16,08,57,272.90
2019,04,16,08,58,270.70
2019,04,16,08,59,269.90
2019,04,16,09,00,267.30
2019,04,16,09,01,281.80
2019,04,16,09,02,305.40
2019,04,16,09,03,337.10
2019,04,16,09,04,356.20
2019,04,16,09,05,371.50
2019,04,16,09,06,373.50
2019,04,16,09,07,389.70
2019,04,16,09,08,390.80
2019,04,16,09,09,396.00
2019,04,16,09,10,396.00
2019,04,16,09,11,393.10
2019,04,16,09,12,385.50
2019,04,16,09,13,374.00
2019,04,16,09,14,381.20
2019,04,16,09,15,387.50
2019,04,16,09,16,392.40
2019,04,16,09,17,405.60
2019,04,16,09,18,429.90
2019,04,16,09,19,429.40
2019,04,16,09,20,410.60
2019,04,16,09,21,409.10
2019,04,16,09,22,402.60
2019,04,16,09,23,380.60
2019,04,16,09,24,366.20
2019,04,16,09,25,352.50
2019,04,16,09,26,342.30
2019,04,16,09,27,346.00
2019,04,16,09,28,340.20
2019,04,16,09,29,330.90
2019,04,16,09,30,347.80
2019,04,16,09,31,356.20
2019,04,16,09,32,359.60
2019,04,16,09,33,365.30
2019,04,16,09,34,382.00
2019,04,16,09,35,373.50
2019,04,16,09,36,385.40
2019,04,16,09,37,407.80
2019,04,16,09,38,413.00
2019,04,16,09,39,404.90
2019,04,16,09,40,408.80
2019,04,16,09,41,428.30
2019,04,16,09,42,448.00
2019,04,16,09,43,441.10
2019,04,16,09,44,407.90
2019,04,16,09,45,367.30
2019,04,16,09,46,344.60
2019,04,16,09,47,338.30
2019,04,16,09,48,331.90
2019,04,16,09,49,316.40
2019,04,16,09,50,303.00
2019,04,16,09,51,291.00
2019,04,16,09,52,282.60
2019,04,16,09,53,276.40
2019,04,16,09,54,268.00
2019,04,16,09,55,263.30
2019,04,16,09,56,259.50
2019,04,16,09,57,254.50
2019,04,16,09,58,251.50
2019,04,16,09,59,250.90
2019,04,16,10,00,250.60
2019,04,16,10,01,253.70
2019,04,16,10,02,257.50
2019,04,16,10,03,264.80
2019,04,16,10,04,272.60
2019,04,16,10,05,278.90
2019,04,16,10,06,282.60
2019,04,16,10,07,281.70
2019,04,16,10,08,283.00
2019,04,16,10,09,280.40
2019,04,16,10,10,275.00
2019,04,16,10,11,270.50
2019,04,16,10,12,266.20
2019,04,16,10,13,264.40
2019,04,16,10,14,268.30
2019,04,16,10,15,274.40
2019,04,16,10,16,280.00
2019,04,16,10,17,283.10
2019,04,16,10,18,285.00
2019,04,16,10,19,285.80
2019,04,16,10,20,287.00
2019,04,16,10,21,285.60
2019,04,16,10,22,279.00
2019,04,16,10,23,273.50
2019,04,16,10,24,271.00
2019,04,16,10,25,271.00
2019,04,16,10,26,271.60
2019,04,16,10,27,276.40
2019,04,16,10,28,278.90
2019,04,16,10,29,283.80
2019,04,16,10,30,290.70
2019,04,16,10,31,303.60
2019,04,16,10,32,318.40
2019,04,16,10,33,337.20
2019,04,16,10,34,352.80
2019,04,16,10,35,376.60
2019,04,16,10,36,396.30
2019,04,16,10,37,408.00
2019,04,16,10,38,415.20
2019,04,16,10,39,402.00
2019,04,16,10,40,377.20
2019,04,16,10,41,358.50
2019,04,16,10,42,353.00
2019,04,16,10,43,352.50
2019,04,16,10,44,342.90
2019,04,16,10,45,349.10
2019,04,16,10,46,358.70
2019,04,16,10,47,350.20
2019,04,16,10,48,331.60
2019,04,16,10,49,323.40
2019,04,16,10,50,320.70
2019,04,16,10,51,322.40
2019,04,16,10,52,319.90
2019,04,16,10,53,315.50
2019,04,16,10,54,305.60
2019,04,16,10,55,303.10
2019,04,16,10,56,304.00
2019,04,16,10,57,305.60
2019,04,16,10,58,307.70
2019,04,16,10,59,306.60
2019,04,16,11,00,306.30
2019,04,16,11,01,307.90
2019,04,16,11,02,314.70
2019,04,16,11,03,322.00
2019,04,16,11,04,332.30
2019,04,16,11,05,336.10
2019,04,16,11,06,340.20
2019,04,16,11,07,341.20
2019,04,16,11,08,347.90
2019,04,16,11,09,364.50
2019,04,16,11,10,369.00
2019,04,16,11,11,384.50
2019,04,16,11,12,397.40
2019,04,16,11,13,407.60
2019,04,16,11,14,416.00
2019,04,16,11,15,418.50
2019,04,16,11,16,426.00
2019,04,16,11,17,429.30
2019,04,16,11,18,434.60
2019,04,16,11,19,435.80
2019,04,16,11,20,459.20
2019,04,16,11,21,479.20
2019,04,16,11,22,489.30
2019,04,16,11,23,461.00
2019,04,16,11,24,440.00
2019,04,16,11,25,413.00
2019,04,16,11,26,385.00
2019,04,16,11,27,367.80
2019,04,16,11,28,358.60
2019,04,16,11,29,353.00
2019,04,16,11,30,354.10
2019,04,16,11,31,365.40
2019,04,16,11,32,400.60
2019,04,16,11,33,455.40
2019,04,16,11,34,483.20
2019,04,16,11,35,495.40
2019,04,16,11,36,519.50
2019,04,16,11,37,539.90
2019,04,16,11,38,535.40
2019,04,16,11,39,551.20
2019,04,16,11,40,571.10
2019,04,16,11,41,605.00
2019,04,16,11,42,631.50
2019,04,16,11,43,640.80
2019,04,16,11,44,651.80
2019,04,16,11,45,657.40
2019,04,16,11,46,661.80
2019,04,16,11,47,640.20
2019,04,16,11,48,624.00
2019,04,16,11,49,665.20
2019,04,16,11,50,664.70
2019,04,16,11,51,681.30
2019,04,16,11,52,667.60
2019,04,16,11,53,670.50
2019,04,16,11,54,680.20
2019,04,16,11,55,675.90
2019,04,16,11,56,723.10
2019,04,16,11,57,723.40
2019,04,16,11,58,659.80
2019,04,16,11,59,659.70
2019,04,16,12,00,616.00
2019,04,16,12,01,649.00
2019,04,16,12,02,659.10
2019,04,16,12,03,646.80
2019,04,16,12,04,632.70
2019,04,16,12,05,641.30
2019,04,16,12,06,638.00
2019,04,16,12,07,595.60
2019,04,16,12,08,568.30
2019,04,16,12,09,610.00
2019,04,16,12,10,543.50
2019,04,16,12,11,556.50
2019,04,16,12,12,586.40
2019,04,16,12,13,639.70
2019,04,16,12,14,655.70
2019,04,16,12,15,629.00
2019,04,16,12,16,565.20
2019,04,16,12,17,582.60
2019,04,16,12,18,580.80
2019,04,16,12,19,606.40
2019,04,16,12,20,606.80
2019,04,16,12,21,566.20
2019,04,16,12,22,524.80
2019,04,16,12,23,491.50
2019,04,16,12,24,488.90
2019,04,16,12,25,509.30
2019,04,16,12,26,528.50
2019,04,16,12,27,539.40
2019,04,16,12,28,528.90
2019,04,16,12,29,530.40
2019,04,16,12,30,528.80
2019,04,16,12,31,518.10
2019,04,16,12,32,492.50
2019,04,16,12,33,469.70
2019,04,16,12,34,458.70
2019,04,16,12,35,474.20
2019,04,16,12,36,483.20
2019,04,16,12,37,464.10
2019,04,16,12,38,462.00
2019,04,16,12,39,465.50
2019,04,16,12,40,459.10
2019,04,16,12,41,455.80
2019,04,16,12,42,444.50
2019,04,16,12,43,420.60
2019,04,16,12,44,408.00
2019,04,16,12,45,393.90
2019,04,16,12,46,388.50
2019,04,16,12,47,389.00
2019,04,16,12,48,391.60
2019,04,16,12,49,404.00
2019,04,16,12,50,411.60
2019,04,16,12,51,416.20
2019,04,16,12,52,418.50
2019,04,16,12,53,424.00
2019,04,16,12,54,422.40
2019,04,16,12,55,430.70
2019,04,16,12,56,420.50
2019,04,16,12,57,410.00
2019,04,16,12,58,408.90
2019,04,16,12,59,410.00
2019,04,16,13,00,419.80
2019,04,16,13,01,412.00
2019,04,16,13,02,403.80
2019,04,16,13,03,413.60
2019,04,16,13,04,425.00
2019,04,16,13,05,420.10
2019,04,16,13,06,403.50
2019,04,16,13,07,390.70
2019,04,16,13,08,400.90
2019,04,16,13,09,414.50
2019,04,16,13,10,429.30
2019,04,16,13,11,443.00
2019,04,16,13,12,453.60
2019,04,16,13,13,432.60
2019,04,16,13,14,435.40
2019,04,16,13,15,427.70
2019,04,16,13,16,422.90
2019,04,16,13,17,417.50
2019,04,16,13,18,410.80
2019,04,16,13,19,417.00
2019,04,16,13,20,413.00
2019,04,16,13,21,410.60
2019,04,16,13,22,402.60
2019,04,16,13,23,388.50
2019,04,16,13,24,370.00
2019,04,16,13,25,355.10
2019,04,16,13,26,346.20
2019,04,16,13,27,342.00
2019,04,16,13,28,339.00
2019,04,16,13,29,334.80
2019,04,16,13,30,330.40
2019,04,16,13,31,330.00
2019,04,16,13,32,330.70
2019,04,16,13,33,333.00
2019,04,16,13,34,336.60
2019,04,16,13,35,342.00
2019,04,16,13,36,347.50
2019,04,16,13,37,344.50
2019,04,16,13,38,343.00
2019,04,16,13,39,340.90
2019,04,16,13,40,339.00
2019,04,16,13,41,336.60
2019,04,16,13,42,335.10
2019,04,16,13,43,328.70
2019,04,16,13,44,322.20
2019,04,16,13,45,316.30
2019,04,16,13,46,315.00
2019,04,16,13,47,311.60
2019,04,16,13,48,300.50
2019,04,16,13,49,288.10
2019,04,16,13,50,273.10
2019,04,16,13,51,256.80
2019,04,16,13,52,237.40
2019,04,16,13,53,219.40
2019,04,16,13,54,202.90
2019,04,16,13,55,195.80
2019,04,16,13,56,194.90
2019,04,16,13,57,201.20
2019,04,16,13,58,211.50
2019,04,16,13,59,224.20
2019,04,16,14,00,232.60
2019,04,16,14,01,237.10
2019,04,16,14,02,241.40
2019,04,16,14,03,249.40
2019,04,16,14,04,261.80
2019,04,16,14,05,271.80
2019,04,16,14,06,282.80
2019,04,16,14,07,293.90
2019,04,16,14,08,304.30
2019,04,16,14,09,308.60
2019,04,16,14,10,293.80
2019,04,16,14,11,262.60
2019,04,16,14,12,232.80
2019,04,16,14,13,211.80
2019,04,16,14,14,200.50
2019,04,16,14,15,192.60
2019,04,16,14,16,182.80
2019,04,16,14,17,176.10
2019,04,16,14,18,174.80
2019,04,16,14,19,179.20
2019,04,16,14,20,183.20
2019,04,16,14,21,185.00
2019,04,16,14,22,185.80
2019,04,16,14,23,192.40
2019,04,16,14,24,201.50
2019,04,16,14,25,213.40
2019,04,16,14,26,224.90
2019,04,16,14,27,229.70
2019,04,16,14,28,227.50
2019,04,16,14,29,221.90
2019,04,16,14,30,212.50
2019,04,16,14,31,211.20
2019,04,16,14,32,222.70
2019,04,16,14,33,229.00
2019,04,16,14,34,258.50
2019,04,16,14,35,280.40
2019,04,16,14,36,288.60
2019,04,16,14,37,290.00
2019,04,16,14,38,291.20
2019,04,16,14,39,292.00
2019,04,16,14,40,290.30
2019,04,16,14,41,290.00
2019,04,16,14,42,290.60
2019,04,16,14,43,292.00
2019,04,16,14,44,289.60
2019,04,16,14,45,285.80
2019,04,16,14,46,281.00
2019,04,16,14,47,269.60
2019,04,16,14,48,254.40
2019,04,16,14,49,232.00
2019,04,16,14,50,203.80
2019,04,16,14,51,181.80
2019,04,16,14,52,171.70
2019,04,16,14,53,171.20
2019,04,16,14,54,173.40
2019,04,16,14,55,176.00
2019,04,16,14,56,176.00
2019,04,16,14,57,176.00
2019,04,16,14,58,177.70
2019,04,16,14,59,173.40
2019,04,16,15,00,169.40
2019,04,16,15,01,161.20
2019,04,16,15,02,151.40
2019,04,16,15,03,143.40
2019,04,16,15,04,135.10
2019,04,16,15,05,130.80
2019,04,16,15,06,125.40
2019,04,16,15,07,120.40
2019,04,16,15,08,113.10
2019,04,16,15,09,105.90
2019,04,16,15,10,101.80
2019,04,16,15,11,97.10
2019,04,16,15,12,95.00
2019,04,16,15,13,96.10
2019,04,16,15,14,99.10
2019,04,16,15,15,98.30
2019,04,16,15,16,96.10
2019,04,16,15,17,90.10
2019,04,16,15,18,88.00
2019,04,16,15,19,88.00
2019,04,16,15,20,85.00
2019,04,16,15,21,84.10
2019,04,16,15,22,86.00
2019,04,16,15,23,86.00
2019,04,16,15,24,84.70
2019,04,16,15,25,81.80
2019,04,16,15,26,78.20
2019,04,16,15,27,79.10
2019,04,16,15,28,84.40
2019,04,16,15,29,87.40
2019,04,16,15,30,92.40
2019,04,16,15,31,95.00
2019,04,16,15,32,95.00
2019,04,16,15,33,95.00
2019,04,16,15,34,95.40
2019,04,16,15,35,98.80
2019,04,16,15,36,107.50
2019,04,16,15,37,119.30
2019,04,16,15,38,132.60
2019,04,16,15,39,145.50
2019,04,16,15,40,147.20
2019,04,16,15,41,141.20
2019,04,16,15,42,132.30
2019,04,16,15,43,126.10
2019,04,16,15,44,126.60
2019,04,16,15,45,131.90
2019,04,16,15,46,134.80
2019,04,16,15,47,138.50
2019,04,16,15,48,143.60
2019,04,16,15,49,149.20
2019,04,16,15,50,154.40
2019,04,16,15,51,155.00
2019,04,16,15,52,155.00
2019,04,16,15,53,153.40
2019,04,16,15,54,149.90
2019,04,16,15,55,148.30
2019,04,16,15,56,148.80
2019,04,16,15,57,150.70
2019,04,16,15,58,148.70
2019,04,16,15,59,148.00
2019,04,16,16,00,146.80
2019,04,16,16,01,144.50
2019,04,16,16,02,144.20
2019,04,16,16,03,148.80
2019,04,16,16,04,155.00
2019,04,16,16,05,163.10
2019,04,16,16,06,169.40
2019,04,16,16,07,173.20
2019,04,16,16,08,177.60
2019,04,16,16,09,178.90
2019,04,16,16,10,178.00
2019,04,16,16,11,178.60
2019,04,16,16,12,181.70
2019,04,16,16,13,187.00
2019,04,16,16,14,191.90
2019,04,16,16,15,192.70
2019,04,16,16,16,190.30
2019,04,16,16,17,184.10
2019,04,16,16,18,177.50
2019,04,16,16,19,176.00
2019,04,16,16,20,175.40
2019,04,16,16,21,169.90
2019,04,16,16,22,159.90
2019,04,16,16,23,149.10
2019,04,16,16,24,144.50
2019,04,16,16,25,141.50
2019,04,16,16,26,141.00
2019,04,16,16,27,139.80
2019,04,16,16,28,134.80
2019,04,16,16,29,126.80
2019,04,16,16,30,118.10
2019,04,16,16,31,114.20
2019,04,16,16,32,113.00
2019,04,16,16,33,113.00
2019,04,16,16,34,111.10
2019,04,16,16,35,105.00
2019,04,16,16,36,98.30
2019,04,16,16,37,90.80
2019,04,16,16,38,85.40
2019,04,16,16,39,81.60
2019,04,16,16,40,75.70
2019,04,16,16,41,66.20
2019,04,16,16,42,57.50
2019,04,16,16,43,54.30
2019,04,16,16,44,56.50
2019,04,16,16,45,58.70
2019,04,16,16,46,60.00
2019,04,16,16,47,60.00
2019,04,16,16,48,58.40
2019,04,16,16,49,58.00
2019,04,16,16,50,58.00
2019,04,16,16,51,58.00
2019,04,16,16,52,55.40
2019,04,16,16,53,51.70
2019,04,16,16,54,49.40
2019,04,16,16,55,47.00
2019,04,16,16,56,47.50
2019,04,16,16,57,48.20
2019,04,16,16,58,47.00
2019,04,16,16,59,47.00
2019,04,16,17,00,46.20
2019,04,16,17,01,46.10
2019,04,16,17,02,47.00
2019,04,16,17,03,46.60
2019,04,16,17,04,44.90
2019,04,16,17,05,44.00
2019,04,16,17,06,42.30
2019,04,16,17,07,40.00
2019,04,16,17,08,39.70
2019,04,16,17,09,38.20
2019,04,16,17,10,35.90
2019,04,16,17,11,32.90
2019,04,16,17,12,30.20
2019,04,16,17,13,28.00
2019,04,16,17,14,29.20
2019,04,16,17,15,33.30
2019,04,16,17,16,36.30
2019,04,16,17,17,38.50
2019,04,16,17,18,37.00
2019,04,16,17,19,32.40
2019,04,16,17,20,29.40
2019,04,16,17,21,28.00
2019,04,16,17,22,29.30
2019,04,16,17,23,30.00
2019,04,16,17,24,30.00
2019,04,16,17,25,30.40
2019,04,16,17,26,32.30
2019,04,16,17,27,34.10
2019,04,16,17,28,36.30
2019,04,16,17,29,38.60
2019,04,16,17,30,39.90
2019,04,16,17,31,40.00
2019,04,16,17,32,39.60
2019,04,16,17,33,37.00
2019,04,16,17,34,33.70
2019,04,16,17,35,33.00
2019,04,16,17,36,35.00
2019,04,16,17,37,35.00
2019,04,16,17,38,34.30
2019,04,16,17,39,33.00
2019,04,16,17,40,32.30
2019,04,16,17,41,32.00
2019,04,16,17,42,32.20
2019,04,16,17,43,34.10
2019,04,16,17,44,38.20
2019,04,16,17,45,42.20
2019,04,16,17,46,46.10
2019,04,16,17,47,50.40
2019,04,16,17,48,50.60
2019,04,16,17,49,46.70
2019,04,16,17,50,44.20
2019,04,16,17,51,40.80
2019,04,16,17,52,40.00
2019,04,16,17,53,40.00
2019,04,16,17,54,39.00
2019,04,16,17,55,39.00
2019,04,16,17,56,38.10
2019,04,16,17,57,35.70
2019,04,16,17,58,33.50
2019,04,16,17,59,33.00
2019,04,16,18,00,32.80
2019,04,16,18,01,32.00
2019,04,16,18,02,32.00
2019,04,16,18,03,30.70
2019,04,16,18,04,28.50
2019,04,16,18,05,26.10
2019,04,16,18,06,25.00
2019,04,16,18,07,24.30
2019,04,16,18,08,23.00
2019,04,16,18,09,23.00
2019,04,16,18,10,23.00
2019,04,16,18,11,24.90